Featured Flight

MET5760 - Boston to Baltimore

Embraer ERJ-170LR
N920AU
1 hr 15 mins
321 nm
Scheduled - Daily

Bid/PiRep Status

Bid was submitted on January 2nd, 2017 20:49 UTC.
PiRep # 74599: Approved by Sean Doyle on January 4th, 2017 23:10 UTC

Departure

Departing from
Boston (BOS)
Departure gate
Scheduled Departure
GMT 0136
Local 2036
METAR KBOS 231954Z 07008KT 1 1/4SM BR SCT003 BKN037 BKN250 15/14 A3024 RMK AO2 SLP240 SFC VIS 6 VIS 3/4 E-S T01500139
TAF KBOS 231920Z 2319/2424 07007KT 1 1/2SM BR BKN002 BKN250 FM232100 08007KT 1SM BR BKN003 FM240300 11008KT 1/2SM FG BKN003 FM241100 16011G19KT 1SM BR OVC008 FM241300 16014G22KT 4SM BR VCSH OVC010 FM241600 16015G24KT 6SM BR VCSH OVC025 FM241900 17016G26KT P6S

Arrival

Arriving at
Baltimore (BWI)
Arrival gate
Scheduled Arrival
GMT 0251
Local 2151

Route Map

Planning Resources

PUT,JFK,COL,VCN,ENO
BURDY SEY HTO HOFFI SHLEP CREEL JOANI RBV COPES MXE STOEN SACRI
PATSS1.DEDHM DEDHM NELIE CMK J75 MXE V378 BAL
KBOS OOD PUT HFD PACER RBV OOD KBWI
PATSS2 PATSS NELIE CMK J75 MXE V378 BAL
Route:
OFP Layout:
Units:
Detailed Navlog:
ETOPS Planning:
Plan Stepclimbs:
Runway Analysis:
Include NOTAMS:
FIR NOTAMS:
Flight Maps:

Return Flights

MET765
Airbus A321-232
2300 GMT
MET5691
Embraer ERJ-170LR
1115 GMT
MET5759
Embraer ERJ-170LR
1645 GMT
MET5763
Embraer ERJ-170LR
2345 GMT

Popularity

Hub Current Bids PiReps this month Total PiReps
KLAX 0 0 0
KBOS 0 0 1
KDFW 0 0 0